Regional Weather Roundup
Issued by NWS

Home | Current Version | Previous Version | Graphics & Text | Print | Product List | Glossary On
Versions: 1 2 3 4 5 6 7 8 9 10 11 12 13 14 15 16 17 18 19 20 21 22 23 24 25 26 27 28 29 30 31 32 33 34 35 36 37 38 39 40 41 42 43 44 45 46 47 48 49 50
000
ASUS44 KMEG 261500
RWRTN
TENNESSEE HOURLY STATE WEATHER ROUNDUP
NATIONAL WEATHER SERVICE MEMPHIS TN
1000 AM CDT FRI AUG 26 2016

TNZ002-004-019-021-049-052-054-088>092-261600-
WEST TENNESSEE

CITY           SKY/WX    TMP DP  RH WIND       PRES   REMARKS
MEMPHIS INTL   CLOUDY    85  75  72 N5        30.11R HX  93
NWS MEMPHIS      N/A     85 N/A N/A MISG        N/A
JACKSON        SUNNY     84  77  79 CALM      30.12R HX  94
DYERSBURG      SUNNY    N/A N/A N/A MISG      30.11
UNION CITY     SUNNY     86  75  70 CALM      30.11S HX  95
PARIS          MOSUNNY   82  75  78 NE3       30.14S
LEXINGTON      SUNNY     88  77  70 CALM      30.11S HX 100
$$

TNZ008-025-027-028-033-062-065-066-261600-
NORTH MIDDLE TENNESSEE

CITY           SKY/WX    TMP DP  RH WIND       PRES   REMARKS
NASHVILLE      MOSUNNY   86  73  65 E5        30.15R HX  93
CLARKSVILLE    MOSUNNY   87  75  67 CALM      30.14R HX  96
SMYRNA         SUNNY     84  75  74 MISG      30.15R HX  92
COOKEVILLE     SUNNY     88  75  66 CALM      30.16R HX  97
CROSSVILLE     SUNNY     83  71  67 NE7       30.23R
$$

TNZ061-075-076-078-094-096-097-261600-
SOUTH MIDDLE TENNESSEE

CITY           SKY/WX    TMP DP  RH WIND       PRES   REMARKS
TULLAHOMA      SUNNY     86  72  62 NE3       30.17R HX  92
WINCHESTER     SUNNY     88  73  62 N5        30.15S HX  96
MCMINNVILLE    SUNNY     86  79  79 NE6       30.17R HX  99
COLUMBIA       SUNNY     88  86  94 NE3       30.13R HX 116
SHELBYVILLE    SUNNY     88  77  70 CALM      30.16R HX 100
$$

TNZ017-018-042-046-047-261600-
NORTHEAST TENNESSEE

CITY           SKY/WX    TMP DP  RH WIND       PRES   REMARKS
TRI CITIES     MOSUNNY   81  72  74 CALM      30.21S
$$

TNZ012-013-036-069-073-074-261600-
CENTRAL EAST TENNESSEE

CITY           SKY/WX    TMP DP  RH WIND       PRES   REMARKS
KNOXVILLE      MOSUNNY   85  72  65 NE5       30.16S HX  91
GATLINBURG     SUNNY     82  72  69 VRB3      30.17S
$$

TNZ083-085-099-261600-
SOUTHEAST TENNESSEE

CITY           SKY/WX    TMP DP  RH WIND       PRES   REMARKS
CHATTANOOGA    MOSUNNY   86  71  60 NW8       30.14S HX  91
$$

SKY/WX REPORTED AS FAIR MEANS FEW OR NO CLOUDS BELOW
12 THOUSAND FEET.





USA.gov is the U.S. government's official web portal to all federal, state and local government web resources and services.